This demonstration page uses our WeatherBlox Daily Observations layout. Learn more.

Left ArrowRight Arrow

38.88101, -77.10428

Hourly Observations for July 22, 2016

Temp ( °F °C ) Dew Point ( °F °C ) Humidity (%) Winds ( mph kmh ) Pressure ( in mb ) Visibility ( mi km ) Precip ( " mm )
12:52 am 00:52 Partly Cloudy 78 25.6 68 20 71 71 SSW 13 20 30.08 1019 10 16.0934 0 0
1:52 am 01:52 Partly Cloudy 77 25 69 20.6 77 77 S 9 15 30.06 1018 10 16.0934 0 0
2:52 am 02:52 Partly Cloudy 76 24.4 69 20.6 79 79 S 8 13 30.05 1018 10 16.0934 0 0
3:52 am 03:52 Mostly Clear 76 24.4 69 20.6 79 79 S 3 6 30.04 1017 10 16.0934 0 0
4:52 am 04:52 Mostly Clear 75 23.9 69 20.6 82 82 S 7 11 30.04 1017 10 16.0934 0 0
5:52 am 05:52 Mostly Cloudy 75 23.9 71 21.7 88 88 SSW 7 11 30.04 1017 10 16.0934 0 0
6:52 am 06:52 Cloudy 75 23.9 71 21.7 88 88 S 7 11 30.04 1017 10 16.0934 0 0
7:52 am 07:52 Cloudy 77 25 71 21.7 82 82 SSW 6 9 30.03 1017 10 16.0934 0 0
8:52 am 08:52 Cloudy 79 26.1 71 21.7 77 77 SSW 9 15 30.04 1017 10 16.0934 0 0
9:52 am 09:52 Cloudy 82 27.8 72 22.2 72 72 SSE 6 9 30.03 1017 10 16.0934 0 0
10:52 am 10:52 Cloudy 85 29.4 72 22.2 65 65 SSE 7 11 30.02 1017 10 16.0934 0 0
11:52 am 11:52 Cloudy 87 30.6 70 21.1 57 57 E 3 6 30.01 1016 10 16.0934 0 0
12:52 pm 12:52 Cloudy 91 32.8 69 20.6 49 49 ENE 3 6 30.01 1016 10 16.0934 0 0
1:52 pm 13:52 Cloudy 92 33.3 70 21.1 49 49 VRB 5 7 29.98 1015 10 16.0934 0 0
2:52 pm 14:52 Cloudy 93 33.9 72 22.2 50 50 S 10 17 29.96 1015 10 16.0934 0 0
3:14 pm 15:14 Cloudy 95 35 68 20 41 41 NW 8 13 29.97 1015 10 16.0934 0 0
3:52 pm 15:52 Cloudy 93 33.9 70 21.1 47 47 SW 7 11 29.95 1014 10 16.0934 0 0
4:52 pm 16:52 Cloudy 93 33.9 72 22.2 50 50 S 15 24 29.92 1013 10 16.0934 0 0
5:52 pm 17:52 Cloudy 91 32.8 72 22.2 54 54 SSW 16 26 29.9 1012 10 16.0934 0 0
6:52 pm 18:52 Cloudy 90 32.2 71 21.7 54 54 SSW 14 22 29.9 1013 10 16.0934 0 0
7:27 pm 19:27 Cloudy 90 32.2 71 21.7 54 54 SSW 13 20 29.91 1013 10 16.0934 0 0
7:52 pm 19:52 Cloudy 89 31.7 71 21.7 55 55 SSW 12 19 29.9 1013 10 16.0934 0 0
8:27 pm 20:27 Mostly Cloudy 88 31.1 71 21.7 57 57 SSW 10 17 29.91 1013 10 16.0934 0 0
8:52 pm 20:52 Mostly Cloudy 87 30.6 72 22.2 61 61 SW 10 17 29.9 1013 10 16.0934 0 0
9:52 pm 21:52 Partly Cloudy 86 30 72 22.2 63 63 SW 8 13 29.92 1013 10 16.0934 0 0
10:52 pm 22:52 Partly Cloudy 85 29.4 71 21.7 63 63 SW 6 9 29.92 1013 10 16.0934 0 0
11:52 pm 23:52 Mostly Clear 83 28.3 71 21.7 67 67 SSW 7 11 29.93 1014 10 16.0934 0 0

Powered by AerisWeather